Flag for Slovakia Weather past 2 weeks in Bratislava, Slovakia

Now
82 °F

Passing clouds.


Feels Like: 81 °F
Forecast: 63 / 83 °F
Wind: 7 mph from Northwest

Location: Bratislava Ivanka

Current Time: Jun 30, 2015 at 4:32:00 PM

Latest Report: Jun 30, 2015 at 4:00 PM


Visibility: N/A

Pressure: 30.12 "Hg

Humidity: 26%

Dew point: 45 °F

Location of BratislavaLocation

Historic Weather in Bratislava — Graph

°F

Bratislava temperature yesterday

Maximum temperature yesterday: 75 °F (at 4:00 PM)
Minimum temperature yesterday: 57 °F (at 3:30 AM)
Average temperature yesterday: 67 °F

Past Weeks' High & Low Weather Summary

 TemperatureHumidityPressure
High81 °F (Jun 30, 1:30 PM)94% (Jun 23, 1:30 AM)30.24 "Hg (Jun 23, 1:30 AM)
Low48 °F (Jun 18, 4:00 AM)28% (Jun 26, 5:00 PM)29.77 "Hg (Jun 23, 4:00 AM)
Average64 °F59%30.04 "Hg
* Reported Jun 15 3:00 PM — Jun 30 3:00 PM, Bratislava, Weather by CustomWeather, © 2015

Note: Actual official high and low records may vary slightly from our data, if they occured in-between our weather recording intervals... More about our weather records

Advertising

Bratislava weather history for previous 24 hours

 ConditionsComfort  
Time TempWeatherWind HumidityBarometerVisibility
3:00 PM
Tue, Jun 30
81 °FPassing clouds.5 mph30%30.12 "HgN/A
2:30 PM81 °FPassing clouds.7 mph30%30.12 "HgN/A
2:00 PM81 °FSunny.3 mph32%30.15 "Hg10 mi
1:30 PM81 °FPassing clouds.10 mph32%30.15 "HgN/A
1:00 PM79 °FSunny.2 mph39%30.15 "Hg10 mi
12:30 PM79 °FSunny.3 mph39%30.15 "Hg10 mi
12:00 PM77 °FSunny.3 mph42%30.18 "Hg10 mi
11:30 AM75 °FPassing clouds.7 mph44%30.18 "HgN/A
11:00 AM75 °FPassing clouds.6 mph44%30.18 "HgN/A
10:30 AM73 °FPassing clouds.1 mph47%30.18 "HgN/A
10:00 AM73 °FSunny.1 mph44%30.18 "Hg10 mi
9:30 AM73 °FSunny.1 mph44%30.18 "Hg10 mi
9:00 AM73 °FSunny.2 mph47%30.18 "Hg10 mi
8:30 AM68 °FSunny.1 mph60%30.18 "Hg10 mi
8:00 AM64 °FSunny.1 mph68%30.18 "Hg10 mi
7:30 AM63 °FSunny.1 mph77%30.18 "Hg10 mi
7:00 AM61 °FSunny.No wind72%30.18 "Hg10 mi
6:30 AM59 °FLight fog.5 mph77%30.18 "HgN/A
6:00 AM57 °FLight fog.1 mph82%30.18 "HgN/A
5:30 AM54 °FLight fog.2 mph88%30.15 "HgN/A
5:00 AM54 °FLight fog.1 mph88%30.15 "HgN/A
4:30 AM55 °FSleet. Light fog.1 mph82%30.15 "HgN/A
4:00 AM55 °FSleet. Light fog.No wind82%30.15 "HgN/A
3:30 AM55 °FFog.1 mph82%30.15 "HgN/A
3:00 AM57 °FFog.1 mph82%30.15 "HgN/A
2:30 AM57 °FFog.2 mph82%30.18 "HgN/A
2:00 AM57 °FFog.2 mph82%30.18 "HgN/A
1:30 AM59 °FFog.1 mph77%30.18 "HgN/A
1:00 AM59 °FFog.2 mph77%30.18 "HgN/A
12:30 AM59 °FClear.2 mph77%30.18 "Hg10 mi
12:00 AM61 °FClear.No wind72%30.18 "Hg10 mi
11:30 PM
Mon, Jun 29
63 °FClear.1 mph68%30.18 "Hg10 mi
11:00 PM63 °FClear.1 mph68%30.18 "Hg10 mi
10:30 PM66 °FClear.5 mph60%30.15 "Hg10 mi
10:00 PM66 °FClear.2 mph60%30.15 "Hg10 mi
9:30 PM66 °FSunny.3 mph60%30.15 "Hg10 mi
9:00 PM68 °FSunny.5 mph53%30.15 "Hg10 mi
8:30 PM70 °FSunny.6 mph50%30.12 "Hg10 mi
8:00 PM73 °FSunny.6 mph41%30.12 "Hg10 mi
7:30 PM73 °FSunny.7 mph41%30.12 "Hg10 mi
7:00 PM73 °FSunny.8 mph41%30.12 "Hg10 mi
6:30 PM75 °FSunny.13 mph34%30.12 "Hg10 mi
6:00 PM75 °FSunny.13 mph34%30.12 "Hg10 mi
5:30 PM75 °FSunny.12 mph36%30.12 "Hg10 mi
5:00 PM75 °FSunny.10 mph39%30.12 "Hg10 mi
4:30 PM75 °FPassing clouds.12 mph36%30.12 "HgN/A
4:00 PM75 °FPassing clouds.7 mph34%30.12 "HgN/A
Weather by CustomWeather, © 2015

See weather overviewHow to use our weather pages